Вернуться в каталог

SJ-11-06

АктивенНаукаSSO
NORAD 39624·PAYLOAD·🇨🇳 China

Запущен Mar 31, 2014 с Jiuquan Satellite Launch Center

Loading…

Ближайшие Пролёты (ближайшие 24 часа)

TLE

СвежийSource: Space-Track

Эпоха: Sep 14, 2026, 13:22 UTC

1 39624U 14014A   26257.55737741  .00000295  00000-0  67896-4 0  9991
2 39624  97.9450 280.8957 0015228  66.8877 293.3928 14.61920734663759

Отслеживайте SJ-11-06 в реальном времени с AllMySat

Download on the App Store